Date String (YYYY-MM-DD hh:mm:ss) UTC,Instrument flags,Ambient pressure (hPa),Sample flow (lpm),Bypass flow (lpm),Sample temperature (°C),Ambient temperature (°C),ASC tube jacket temperature (°C),LED temperature (°C),Box temperature (°C),Sample RH (%),Span deviation,Mass concentration (μg/m³),Mass concentration (μg/m³),Mass concentration (μg/m³)
DateTimeUTC,F1_M11,P_M11,Q1_M11,Q2_M11,T1_M11,T2_M11,T3_M11,T4_M11,T5_M11,U1_M11,ZSPAN_M11,X2_M11,X0_M11,X1_M11
2022-02-21 04:00:00,,0815.1,5.00,0.00,25.8,25.1,00.0,34.8,27.5,04.7,0000.0,0000.78,0002.51,0000.64
2022-02-21 04:01:00,,0815.0,4.98,0.00,25.7,25.0,00.0,34.8,27.5,04.7,0000.0,0000.78,0002.53,0000.64
2022-02-21 04:02:00,,0815.1,5.00,0.00,25.7,25.0,00.0,34.8,27.5,04.6,0000.0,0000.79,0002.60,0000.63
2022-02-21 04:03:00,,0815.0,5.01,0.00,25.7,25.0,00.0,34.8,27.5,04.6,0000.0,0000.85,0003.58,0000.62
2022-02-21 04:04:00,,0815.0,4.99,0.00,25.7,25.0,00.0,34.8,27.5,04.9,0000.0,0000.91,0003.74,0000.63
2022-02-21 04:05:00,,0815.0,4.99,0.00,25.7,25.0,00.0,34.8,27.5,05.2,0000.0,0000.94,0003.81,0000.64
2022-02-21 04:06:00,,0815.0,5.01,0.00,25.7,25.0,00.0,34.8,27.5,05.1,0000.0,0000.95,0003.86,0000.65
2022-02-21 04:07:00,,0815.0,5.00,0.00,25.8,25.0,00.0,34.8,27.5,05.2,0000.0,0000.96,0003.87,0000.66
2022-02-21 04:08:00,,0815.0,4.99,0.00,25.8,25.0,00.0,34.8,27.5,05.1,0000.0,0000.96,0003.85,0000.67
2022-02-21 04:09:00,,0815.0,5.02,0.00,25.8,25.1,00.0,34.8,27.5,05.4,0000.0,0000.96,0003.70,0000.68
2022-02-21 04:10:00,,0814.9,4.99,0.00,25.8,25.1,00.0,34.8,27.6,05.2,0000.0,0000.98,0002.86,0000.69
2022-02-21 04:11:00,,0815.0,5.00,0.00,25.8,25.1,00.0,34.8,27.6,05.0,0000.0,0001.03,0002.57,0000.71
2022-02-21 04:12:00,,0815.0,5.00,0.00,25.8,25.1,00.0,34.8,27.6,05.0,0000.0,0001.05,0002.56,0000.72
2022-02-21 04:13:00,,0814.9,4.99,0.00,25.8,25.1,00.0,34.8,27.6,04.7,0000.0,0001.06,0002.57,0000.72
2022-02-21 04:14:00,,0815.0,5.02,0.00,25.8,25.1,00.0,34.8,27.6,04.7,0000.0,0000.99,0001.58,0000.72
2022-02-21 04:15:00,,0814.9,5.00,0.00,25.8,25.1,00.0,34.8,27.6,04.8,0000.0,0000.94,0001.44,0000.72
2022-02-21 04:16:00,,0814.9,4.99,0.00,25.8,25.1,00.0,34.8,27.6,05.1,0000.0,0000.93,0001.41,0000.73
2022-02-21 04:17:00,,0815.0,5.02,0.00,25.8,25.1,00.0,34.8,27.6,05.4,0000.0,0000.96,0001.46,0000.74
2022-02-21 04:18:00,,0815.0,5.00,0.00,25.8,25.1,00.0,34.8,27.6,05.5,0000.0,0001.01,0001.60,0000.75
2022-02-21 04:19:00,,0815.0,5.00,0.00,25.8,25.1,00.0,34.8,27.6,05.6,0000.0,0001.06,0001.79,0000.77
2022-02-21 04:20:00,,0815.0,5.00,0.00,25.8,25.1,00.0,34.9,27.6,05.8,0000.0,0001.08,0001.81,0000.77
2022-02-21 04:21:00,,0815.0,4.99,0.00,25.8,25.0,00.0,34.9,27.6,06.2,0000.0,0001.08,0001.80,0000.77
2022-02-21 04:22:00,,0814.9,5.02,0.00,25.8,25.0,00.0,34.9,27.6,06.2,0000.0,0001.05,0001.73,0000.79
2022-02-21 04:23:00,,0814.9,4.99,0.00,25.8,25.1,00.0,34.9,27.6,05.9,0000.0,0001.04,0001.67,0000.81
2022-02-21 04:24:00,,0814.9,4.99,0.00,25.8,25.1,00.0,34.9,27.6,05.7,0000.0,0001.06,0001.67,0000.83
2022-02-21 04:25:00,,0815.1,5.02,0.00,25.8,25.1,00.0,34.9,27.6,05.6,0000.0,0001.08,0001.70,0000.85
2022-02-21 04:26:00,,0814.9,4.98,0.00,25.8,25.1,00.0,34.9,27.6,05.6,0000.0,0001.10,0001.84,0000.85
2022-02-21 04:27:00,,0815.0,5.01,0.00,25.8,25.0,00.0,34.9,27.6,05.7,0000.0,0001.12,0002.47,0000.87
2022-02-21 04:28:00,,0814.9,5.01,0.00,25.8,25.0,00.0,34.8,27.5,05.7,0000.0,0001.12,0002.60,0000.87
2022-02-21 04:29:00,,0814.8,4.99,0.00,25.8,25.0,00.0,34.8,27.6,05.3,0000.0,0001.11,0002.57,0000.87
2022-02-21 04:30:00,,0814.9,5.01,0.00,25.8,25.0,00.0,34.9,27.6,05.7,0000.0,0001.10,0002.54,0000.86
2022-02-21 04:31:00,,0814.9,5.01,0.00,25.8,25.0,00.0,34.8,27.6,05.3,0000.0,0001.09,0002.53,0000.85
2022-02-21 04:32:00,,0814.9,4.99,0.00,25.8,25.0,00.0,34.8,27.5,05.3,0000.0,0001.13,0002.61,0000.85
2022-02-21 04:33:00,,0814.9,5.00,0.00,25.8,25.0,00.0,34.8,27.6,05.6,0000.0,0001.15,0003.72,0000.84
2022-02-21 04:34:00,,0815.0,5.01,0.00,25.8,25.0,00.0,34.8,27.5,05.5,0000.0,0001.17,0004.44,0000.84
2022-02-21 04:35:00,,0814.9,5.00,0.00,25.8,25.0,00.0,34.8,27.5,05.4,0000.0,0001.14,0004.65,0000.83
2022-02-21 04:36:00,,0814.9,4.98,0.00,25.8,25.0,00.0,34.8,27.5,05.5,0000.0,0001.14,0005.24,0000.82
2022-02-21 04:37:00,,0815.0,4.99,0.00,25.8,25.0,00.0,34.8,27.5,05.5,0000.0,0001.16,0005.27,0000.84
2022-02-21 04:38:00,,0815.0,5.01,0.00,25.8,25.0,00.0,34.8,27.5,05.6,0000.0,0001.15,0004.63,0000.83
2022-02-21 04:39:00,,0815.0,4.98,0.00,25.8,25.0,00.0,34.8,27.5,05.3,0000.0,0001.14,0005.56,0000.82
2022-02-21 04:40:00,,0815.0,5.00,0.00,25.8,25.0,00.0,34.8,27.5,05.3,0000.0,0001.10,0006.11,0000.81
2022-02-21 04:41:00,,0814.9,5.01,0.00,25.7,25.0,00.0,34.8,27.5,05.4,0000.0,0001.06,0007.54,0000.81
2022-02-21 04:42:00,,0814.9,4.99,0.00,25.7,24.9,00.0,34.8,27.5,05.5,0000.0,0001.06,0007.59,0000.81
2022-02-21 04:43:00,,0814.9,4.98,0.00,25.7,24.9,00.0,34.8,27.5,05.4,0000.0,0001.06,0008.08,0000.82
2022-02-21 04:44:00,,0814.9,5.01,0.00,25.7,24.9,00.0,34.8,27.5,05.3,0000.0,0001.06,0007.73,0000.81
2022-02-21 04:45:00,,0814.9,5.00,0.00,25.7,24.9,00.0,34.8,27.5,05.3,0000.0,0001.05,0007.30,0000.79
2022-02-21 04:46:00,,0814.9,5.01,0.00,25.7,24.9,00.0,34.8,27.5,05.2,0000.0,0001.09,0007.15,0000.78
2022-02-21 04:47:00,,0814.9,4.99,0.00,25.7,24.9,00.0,34.8,27.5,05.1,0000.0,0001.08,0006.56,0000.77
2022-02-21 04:48:00,,0814.8,5.00,0.00,25.7,24.8,00.0,34.8,27.4,05.1,0000.0,0001.07,0006.50,0000.76
2022-02-21 04:49:00,,0814.9,5.01,0.00,25.6,24.8,00.0,34.8,27.4,05.3,0000.0,0001.07,0006.49,0000.75
2022-02-21 04:50:00,,0814.8,4.99,0.00,25.6,24.8,00.0,34.7,27.4,05.4,0000.0,0001.07,0005.28,0000.75
2022-02-21 04:51:00,,0814.8,4.99,0.00,25.6,24.8,00.0,34.7,27.4,05.1,0000.0,0001.09,0004.78,0000.75
2022-02-21 04:52:00,,0814.8,5.01,0.00,25.6,24.8,00.0,34.7,27.4,05.1,0000.0,0001.08,0003.00,0000.75
2022-02-21 04:53:00,,0815.0,5.00,0.00,25.6,24.7,00.0,34.7,27.3,05.1,0000.0,0001.06,0002.89,0000.74
2022-02-21 04:54:00,,0814.9,4.99,0.00,25.6,24.7,00.0,34.7,27.3,05.0,0000.0,0001.03,0002.12,0000.73
2022-02-21 04:55:00,,0814.8,5.01,0.00,25.6,24.7,00.0,34.7,27.3,05.6,0000.0,0001.02,0001.76,0000.73
2022-02-21 04:56:00,,0814.8,5.01,0.00,25.6,24.8,00.0,34.7,27.3,05.7,0000.0,0001.02,0001.69,0000.75
2022-02-21 04:57:00,,0814.9,4.98,0.00,25.6,24.8,00.0,34.7,27.3,05.7,0000.0,0000.99,0001.63,0000.77
2022-02-21 04:58:00,,0814.9,4.99,0.00,25.6,24.7,00.0,34.7,27.3,05.7,0000.0,0001.04,0001.74,0000.79
2022-02-21 04:59:00,,0815.0,5.02,0.00,25.6,24.8,00.0,34.7,27.3,05.6,0000.0,0001.05,0001.75,0000.81
